QPF
0.00 0.00 0.00 0.00 0.00 0.00 0.00 0.00 0.00 0.00 0.00 0.00 0.00 0.00 0.00 0.00 0.00 0.00 0.00 0.00 0.00 0.00 0.00 0.00 0.00 0.00 0.00 0.00 0.00 0.00 0.00 0.00 0.00 0.00 0.00 0.00 0.00 0.00 0.00 0.00 0.00 0.00 0.00 0.00 0.00 0.00 0.00
0.00 0.00 0.00 0.00 0.00 0.00 0.00 0.00 0.00 0.00 0.00 0.00 0.00 0.00 0.00 0.00 0.00 0.00 0.00 0.00 0.00 0.00 0.00 0.00 0.00 0.00 0.00 0.00 0.00 0.00 0.00 0.00 0.00 0.00 0.00 0.00 0.00 0.00 0.00 0.00 0.00 0.00 0.00 0.00 0.00 0.00 0.00
0.00 0.00 0.00 0.00 0.00 0.00 0.00 0.00 0.00 0.00 0.00 0.00 0.00 0.00 0.00 0.00 0.00 0.00 0.00 0.00 0.00 0.00 0.00 0.00 0.00 0.00 0.00 0.00 0.00 0.00 0.00 0.00 0.00 0.00 0.00 0.00 0.00 0.00 0.00 0.00 0.00 0.00 0.00 0.00 0.00 0.00 0.00
0.00 0.00 0.00 0.00 0.00 0.00 0.00 0.00 0.00 0.00 0.00 0.00 0.00 0.00 0.00 0.00 0.00 0.00 0.00 0.00 0.00 0.00 0.00 0.00 0.00 0.00 0.00 0.00 0.00 0.00 0.00 0.00 0.00 0.00 0.00 0.00 0.00 0.00 0.00 0.00 0.00 0.00 0.00 0.00 0.00 0.00 0.00
0.00 0.00 0.00 0.00 0.00 0.00 0.00 0.00 0.00 0.00 0.00 0.00 0.00 0.00 0.00 0.00 0.00 0.00 0.00 0.00 0.00 0.00 0.00 0.00 0.00 0.00 0.00 0.00 0.00 0.00 0.00 0.00 0.00 0.00 0.00 0.00 0.00 0.00 0.00 0.00 0.00 0.00 0.00 0.00 0.00 0.00 0.00
0.00 0.00 0.00 0.00 0.00 0.00 0.00 0.00 0.00 0.00 0.00 0.00 0.00 0.00 0.00 0.00 0.00 0.00 0.00 0.00 0.00 0.00 0.00 0.00 0.00 0.00 0.00 0.00 0.00 0.00 0.00 0.00 0.00 0.00 0.00 0.00 0.00 0.00 0.00 0.00 0.00 0.00 0.00 0.00 0.00 0.00 0.00
0.00 0.00 0.00 0.00 0.00 0.00 0.00 0.00 0.00 0.00 0.00 0.00 0.00 0.00 0.00 0.00 0.00 0.00 0.00 0.00 0.00 0.00 0.00 0.00 0.00 0.00 0.00 0.00 0.00 0.00 0.00 0.00 0.00 0.00 0.00 0.00 0.00 0.00 0.00 0.00 0.00 0.00 0.00 0.00 0.00 0.00 0.00
0.00 0.00 0.00 0.00 0.00 0.00 0.00 0.00 0.00 0.00 0.00 0.00 0.00 0.00 0.00 0.00 0.00 0.00 0.00 0.00 0.00 0.00 0.00 0.00 0.00 0.00 0.00 0.00 0.00 0.00 0.00 0.00 0.00 0.00 0.00 0.00 0.00 0.00 0.00 0.00 0.00 0.00 0.00 0.00 0.00 0.00 0.00
0.00 0.00 0.00 0.00 0.00 0.00 0.00 0.00 0.00 0.00 0.00 0.00 0.00 0.00 0.00 0.00 0.00 0.00 0.00 0.00 0.00 0.00 0.00 0.00 0.00 0.00 0.00 0.00 0.00 0.00 0.00 0.00 0.00 0.00 0.00 0.00 0.00 0.00 0.00 0.00 0.00 0.00 0.00 0.00 0.00 0.00 0.00
0.00 0.00 0.00 0.00 0.00 0.00 0.00 0.00 0.00 0.00 0.00 0.00 0.00 0.00 0.00 0.00 0.00 0.00 0.00 0.00 0.00 0.00 0.00 0.00 0.00 0.00 0.00 0.00 0.00 0.00 0.00 0.00 0.00 0.00 0.00 0.00 0.00 0.00 0.00 0.00 0.00 0.00 0.00 0.00 0.00 0.00 0.00
0.00 0.00 0.00 0.00 0.00 0.00 0.00 0.00 0.00 0.00 0.00 0.00 0.00 0.00 0.00 0.00 0.00 0.00 0.00 0.00 0.00 0.00 0.00 0.00 0.00 0.00 0.00 0.00 0.00 0.00 0.00 0.00 0.00 0.00 0.00 0.00 0.00 0.00 0.00 0.00 0.00 0.00 0.00 0.00 0.00 0.00 0.00
0.00 0.00 0.00 0.00 0.00 0.00 0.00 0.00 0.00 0.00 0.00 0.00 0.00 0.00 0.00 0.00 0.00 0.00 0.00 0.00 0.00 0.00 0.00 0.00 0.00 0.00 0.00 0.00 0.00 0.00 0.00 0.00 0.00 0.00 0.00 0.00 0.00 0.00 0.00 0.00 0.00 0.00 0.00 0.00 0.00 0.00 0.00
0.00 0.00 0.00 0.00 0.00 0.00 0.00 0.00 0.00 0.00 0.00 0.00 0.00 0.00 0.00 0.00 0.00 0.00 0.00 0.00 0.00 0.00 0.00 0.00 0.00 0.00 0.00 0.00 0.00 0.00 0.00 0.00 0.00 0.00 0.00 0.00 0.00 0.00 0.00 0.00 0.00 0.00 0.00 0.00 0.00 0.00 0.00
0.00 0.00 0.00 0.00 0.00 0.00 0.00 0.00 0.00 0.00 0.00 0.00 0.00 0.00 0.00 0.00 0.00 0.00 0.00 0.00 0.00 0.00 0.00 0.00 0.00 0.00 0.00 0.00 0.00 0.00 0.00 0.00 0.00 0.00 0.00 0.00 0.00 0.00 0.00 0.00 0.00 0.00 0.00 0.00 0.00 0.00 0.00
0.00 0.00 0.00 0.00 0.00 0.00 0.00 0.00 0.00 0.00 0.00 0.00 0.00 0.00 0.00 0.00 0.00 0.00 0.00 0.00 0.00 0.00 0.00 0.00 0.00 0.00 0.00 0.00 0.00 0.00 0.00 0.00 0.00 0.00 0.00 0.00 0.00 0.00 0.00 0.00 0.00 0.00 0.00 0.00 0.00 0.00 0.00
0.00 0.00 0.00 0.00 0.00 0.00 0.00 0.00 0.00 0.00 0.00 0.00 0.00 0.00 0.00 0.00 0.00 0.00 0.00 0.00 0.00 0.00 0.00 0.00 0.00 0.00 0.00 0.00 0.00 0.00 0.00 0.00 0.00 0.00 0.00 0.00 0.00 0.00 0.00 0.00 0.00 0.00 0.00 0.00 0.00 0.00 0.00
0.00 0.00 0.00 0.00 0.00 0.00 0.00 0.00 0.00 0.00 0.00 0.00 0.00 0.00 0.00 0.00 0.00 0.00 0.00 0.00 0.00 0.00 0.00 0.00 0.00 0.00 0.00 0.00 0.00 0.00 0.00 0.00 0.00 0.00 0.00 0.00 0.00 0.00 0.00 0.00 0.00 0.00 0.00 0.00 0.00 0.00 0.00
0.01 0.01 0.00 0.00 0.00 0.00 0.00 0.00 0.00 0.00 0.00 0.00 0.00 0.00 0.00 0.00 0.00 0.00 0.00 0.00 0.00 0.00 0.00 0.00 0.00 0.00 0.00 0.00 0.00 0.00 0.00 0.00 0.00 0.00 0.00 0.00 0.00 0.00 0.00 0.00 0.00 0.00 0.00 0.00 0.00 0.00 0.00
0.00 0.01 0.01 0.00 0.00 0.00 0.00 0.00 0.00 0.00 0.00 0.00 0.00 0.00 0.00 0.00 0.00 0.00 0.00 0.00 0.00 0.00 0.00 0.00 0.00 0.00 0.00 0.00 0.00 0.00 0.00 0.00 0.00 0.00 0.00 0.00 0.00 0.00 0.00 0.00 0.00 0.00 0.00 0.00 0.00 0.00 0.00
0.00 0.00 0.01 0.01 0.01 0.00 0.00 0.00 0.00 0.00 0.00 0.00 0.00 0.00 0.00 0.00 0.00 0.00 0.00 0.00 0.00 0.00 0.00 0.00 0.00 0.00 0.00 0.00 0.00 0.00 0.00 0.00 0.00 0.00 0.00 0.00 0.00 0.00 0.00 0.00 0.00 0.00 0.00 0.00 0.00 0.00 0.00
0.00 0.00 0.01 0.01 0.01 0.00 0.00 0.00 0.00 0.00 0.00 0.00 0.00 0.00 0.00 0.00 0.00 0.00 0.00 0.00 0.00 0.00 0.00 0.00 0.00 0.00 0.00 0.00 0.00 0.00 0.00 0.00 0.00 0.00 0.00 0.00 0.00 0.00 0.00 0.00 0.00 0.00 0.00 0.00 0.00 0.00 0.00
0.00 0.00 0.01 0.00 0.00 0.00 0.00 0.00 0.00 0.00 0.00 0.00 0.00 0.00 0.00 0.00 0.00 0.00 0.00 0.00 0.00 0.00 0.00 0.00 0.00 0.00 0.00 0.00 0.00 0.00 0.00 0.00 0.00 0.00 0.00 0.00 0.00 0.00 0.00 0.00 0.00 0.00 0.00 0.00 0.00 0.00 0.00
0.00 0.00 0.00 0.00 0.00 0.00 0.00 0.00 0.00 0.00 0.00 0.00 0.00 0.00 0.00 0.00 0.00 0.00 0.00 0.00 0.00 0.00 0.00 0.00 0.00 0.00 0.00 0.00 0.00 0.00 0.00 0.00 0.00 0.00 0.00 0.00 0.00 0.00 0.00 0.00 0.00 0.00 0.00 0.00 0.00 0.00 0.00
0.00 0.00 0.00 0.00 0.00 0.00 0.00 0.00 0.00 0.00 0.00 0.00 0.00 0.00 0.00 0.00 0.00 0.00 0.00 0.00 0.00 0.00 0.00 0.00 0.00 0.00 0.00 0.00 0.00 0.00 0.00 0.00 0.00 0.00 0.00 0.00 0.00 0.00 0.00 0.00 0.00 0.00 0.00 0.00 0.00 0.00 0.00
0.00 0.00 0.00 0.00 0.00 0.00 0.00 0.00 0.00 0.00 0.00 0.00 0.00 0.00 0.00 0.00 0.00 0.00 0.00 0.00 0.00 0.00 0.00 0.00 0.00 0.00 0.00 0.00 0.00 0.00 0.00 0.00 0.00 0.00 0.00 0.00 0.00 0.00 0.00 0.00 0.00 0.00 0.00 0.00 0.00 0.00 0.00
0.00 0.00 0.00 0.00 0.00 0.00 0.00 0.00 0.00 0.00 0.00 0.00 0.00 0.00 0.00 0.00 0.00 0.00 0.00 0.00 0.00 0.00 0.00 0.00 0.00 0.00 0.00 0.00 0.00 0.00 0.00 0.00 0.00 0.00 0.00 0.00 0.00 0.00 0.00 0.00 0.00 0.00 0.00 0.00 0.00 0.00 0.00
0.00 0.00 0.00 0.00 0.00 0.00 0.00 0.00 0.00 0.00 0.00 0.00 0.00 0.00 0.00 0.00 0.00 0.00 0.00 0.00 0.00 0.00 0.00 0.00 0.00 0.00 0.00 0.00 0.00 0.00 0.00 0.00 0.00 0.00 0.00 0.00 0.00 0.00 0.00 0.00 0.00 0.00 0.00 0.00 0.00 0.00 0.00
0.00 0.00 0.00 0.00 0.00 0.00 0.00 0.00 0.00 0.00 0.00 0.00 0.00 0.00 0.00 0.00 0.00 0.00 0.00 0.00 0.00 0.00 0.00 0.00 0.00 0.00 0.00 0.00 0.00 0.00 0.00 0.00 0.00 0.00 0.00 0.00 0.00 0.00 0.00 0.00 0.00 0.00 0.00 0.00 0.00 0.00 0.00
0.00 0.00 0.00 0.00 0.00 0.00 0.00 0.00 0.00 0.00 0.00 0.00 0.00 0.00 0.00 0.00 0.00 0.00 0.00 0.00 0.00 0.00 0.00 0.00 0.00 0.00 0.00 0.00 0.00 0.00 0.00 0.00 0.00 0.00 0.00 0.00 0.00 0.00 0.00 0.00 0.00 0.00 0.00 0.00 0.00 0.00 0.00
MSLP
1020.75 1020.48 1020.39 1020.15 1019.88 1019.52 1019.12 1018.75 1018.37 1017.94 1017.51 1017.03 1016.47 1015.89 1015.33 1014.83 1014.33 1013.76 1013.11 1012.54 1012.11 1011.80 1011.39 1011.02 1010.80 1010.42 1009.59 1007.15 1004.67 1004.48 1005.08 1005.39 1005.56 1005.19 1004.15 1003.30 1002.44 1002.55 1001.84 1002.23 1002.40 1002.43 1003.33 1003.82 1004.25 1004.52 1004.73
1020.88 1020.65 1020.47 1020.22 1019.94 1019.63 1019.25 1018.81 1018.37 1017.94 1017.45 1016.94 1016.44 1015.90 1015.24 1014.61 1014.09 1013.48 1012.83 1012.23 1011.73 1011.37 1010.98 1010.71 1010.51 1010.27 1008.52 1005.25 1004.66 1004.51 1004.48 1004.92 1004.41 1004.25 1003.62 1003.14 1002.74 1002.75 1002.31 1002.50 1002.34 1003.02 1003.56 1004.08 1004.48 1004.76 1005.16
1020.99 1020.75 1020.45 1020.17 1019.88 1019.56 1019.19 1018.84 1018.42 1017.95 1017.41 1016.87 1016.23 1015.55 1014.96 1014.41 1013.81 1013.18 1012.47 1011.82 1011.23 1010.79 1010.42 1010.29 1010.11 1009.49 1006.99 1004.93 1004.66 1004.58 1004.57 1004.23 1004.11 1003.70 1003.07 1003.28 1003.12 1002.71 1002.31 1002.50 1003.03 1003.14 1003.45 1004.16 1004.56 1004.91 1005.16
1021.06 1020.79 1020.51 1020.24 1019.88 1019.50 1019.11 1018.67 1018.22 1017.78 1017.27 1016.68 1015.92 1015.30 1014.78 1014.23 1013.54 1012.83 1012.11 1011.46 1010.71 1010.12 1009.85 1009.79 1009.80 1008.57 1005.00 1004.72 1004.63 1004.57 1004.42 1004.06 1004.19 1003.78 1003.35 1003.52 1003.27 1002.68 1002.09 1002.65 1002.82 1002.71 1002.97 1003.01 1004.29 1004.80 1005.33
1021.03 1020.77 1020.55 1020.31 1019.95 1019.49 1019.05 1018.61 1018.14 1017.59 1016.98 1016.45 1015.83 1015.19 1014.64 1014.02 1013.29 1012.57 1011.74 1011.07 1010.36 1009.82 1009.60 1009.59 1009.00 1007.12 1004.40 1004.97 1004.26 1003.79 1003.83 1003.34 1003.55 1003.54 1003.64 1003.72 1003.02 1002.28 1002.36 1001.80 1001.91 1002.40 1002.07 1002.74 1003.47 1004.39 1004.72
1020.95 1020.62 1020.40 1020.14 1019.78 1019.43 1019.01 1018.54 1018.01 1017.40 1016.89 1016.32 1015.69 1015.09 1014.42 1013.70 1012.97 1012.19 1011.36 1010.66 1010.17 1009.99 1009.46 1008.73 1007.79 1006.47 1004.28 1003.63 1003.74 1003.80 1003.82 1003.41 1003.00 1003.07 1003.27 1002.97 1002.23 1001.75 1001.53 1000.87 1001.17 1001.61 1002.17 1002.60 1002.92 1003.56 1004.09
1020.84 1020.56 1020.32 1020.03 1019.67 1019.29 1018.91 1018.44 1018.01 1017.45 1016.84 1016.22 1015.56 1014.93 1014.24 1013.45 1012.59 1011.97 1010.83 1009.34 1009.34 1008.53 1007.37 1005.71 1005.19 1004.67 1003.99 1003.83 1004.05 1003.39 1003.40 1003.27 1002.81 1002.42 1001.89 1002.24 1001.34 1000.86 1001.19 1001.54 1002.09 1002.63 1002.55 1002.52 1002.82 1003.46 1003.55
1020.70 1020.45 1020.19 1019.89 1019.50 1019.16 1018.73 1018.30 1017.89 1017.42 1016.87 1016.17 1015.48 1014.85 1014.18 1013.21 1012.22 1011.47 1010.89 1008.15 1008.76 1008.76 1006.29 1005.42 1005.16 1004.79 1004.39 1004.20 1003.10 1002.98 1003.27 1002.54 1002.23 1001.68 1001.47 1002.04 1000.79 1001.66 1002.17 1002.45 1002.36 1002.50 1002.20 1002.45 1002.74 1003.34 1003.34
1020.47 1020.30 1020.08 1019.76 1019.36 1018.97 1018.60 1018.18 1017.73 1017.27 1016.73 1016.12 1015.45 1014.78 1014.08 1012.97 1011.80 1010.80 1009.68 1008.74 1008.89 1008.54 1006.18 1004.71 1004.35 1003.83 1003.59 1003.73 1002.38 1002.51 1002.77 1002.14 1001.73 1001.30 1001.67 1001.07 1001.10 1002.45 1002.24 1002.39 1002.23 1002.17 1002.15 1002.81 1002.80 1002.67 1002.75
1020.28 1020.11 1019.88 1019.59 1019.23 1018.83 1018.44 1018.02 1017.54 1017.03 1016.47 1015.93 1015.34 1014.69 1014.08 1012.89 1011.70 1010.37 1008.77 1009.01 1008.72 1008.47 1005.28 1004.09 1003.63 1003.26 1003.59 1003.04 1002.48 1002.23 1002.33 1002.08 1001.54 1001.50 1001.52 1001.28 1002.12 1002.41 1002.26 1002.21 1002.42 1001.67 1002.98 1003.02 1002.63 1002.04 1001.36
1020.14 1019.96 1019.67 1019.35 1019.00 1018.61 1018.23 1017.79 1017.36 1016.81 1016.15 1015.56 1015.14 1014.58 1014.10 1014.07 1012.01 1009.70 1009.01 1008.85 1008.49 1007.84 1003.80 1003.33 1003.02 1003.46 1002.89 1002.31 1001.74 1002.59 1002.59 1002.36 1001.56 1001.28 1001.85 1001.33 1002.12 1002.41 1002.15 1002.00 1002.63 1002.31 1003.07 1002.95 1002.58 1001.64 1001.66
1019.95 1019.73 1019.48 1019.15 1018.74 1018.35 1017.94 1017.53 1017.06 1016.51 1015.83 1015.13 1014.62 1014.47 1013.95 1012.67 1011.71 1009.63 1009.29 1008.82 1008.21 1005.83 1002.45 1002.33 1002.39 1002.46 1002.40 1002.02 1001.69 1002.06 1002.49 1002.47 1001.46 1001.61 1002.14 1001.34 1002.13 1002.29 1002.06 1002.71 1002.99 1003.00 1002.76 1002.24 1002.01 1001.30 1000.40
1019.77 1019.48 1019.27 1018.92 1018.52 1018.10 1017.68 1017.22 1016.68 1016.09 1015.47 1014.72 1013.94 1013.71 1013.92 1012.18 1009.32 1009.61 1009.18 1007.72 1005.51 1003.04 1002.48 1001.86 1001.33 1001.58 1001.27 1001.29 1001.42 1001.62 1001.71 1001.76 1001.43 1001.49 1001.27 1001.59 1001.94 1002.11 1002.58 1002.41 1002.77 1002.58 1001.91 1000.86 1000.22 1000.12 1000.09
1019.72 1019.37 1019.09 1018.69 1018.23 1017.83 1017.43 1016.91 1016.30 1015.72 1015.12 1014.34 1013.33 1012.67 1011.95 1010.79 1009.91 1009.74 1008.30 1006.20 1003.60 1002.27 1001.28 1001.74 1001.21 1001.05 1000.69 1000.77 1000.87 1001.08 1001.21 1001.05 1001.19 1000.96 1000.34 1000.74 1001.01 1001.79 1002.17 1002.12 1001.69 1001.60 1001.63 1000.86 1000.36 1000.18 1000.11
1019.44 1019.15 1018.81 1018.41 1017.96 1017.53 1017.12 1016.59 1016.09 1015.49 1014.84 1014.09 1012.68 1010.27 1010.05 1009.51 1009.74 1009.66 1007.36 1004.38 1002.16 1001.91 1001.76 1001.33 1001.33 1000.67 1000.38 1000.59 1000.64 1000.87 1000.76 1000.49 1000.93 1001.23 1000.54 1000.40 1000.58 1001.16 1001.56 1001.81 1002.09 1001.60 1001.97 1001.27 1001.15 1000.64 1000.85
1019.09 1018.73 1018.41 1017.99 1017.60 1017.22 1016.73 1016.30 1015.91 1015.34 1014.62 1014.03 1012.36 1009.88 1008.53 1009.11 1009.29 1008.45 1006.09 1003.48 1002.96 1002.87 1002.39 1001.89 1000.39 1000.17 999.91 1000.12 1000.44 1000.32 1000.41 1000.42 1000.52 1001.05 1000.81 1000.85 1000.89 1001.30 1001.48 1002.31 1001.82 1001.87 1001.40 1001.41 1001.10 1000.79 1000.43
1018.71 1018.35 1017.98 1017.54 1017.17 1016.82 1016.44 1016.11 1015.77 1015.28 1014.42 1013.58 1011.76 1008.83 1008.71 1008.91 1008.80 1006.76 1004.39 1003.22 1003.23 1002.98 1002.88 1001.90 1000.98 1000.36 999.48 999.64 999.90 999.98 1000.13 1000.56 1000.73 1001.09 1001.30 1000.99 1001.25 1001.41 1002.01 1001.48 1000.90 1001.73 1001.51 1001.43 1000.76 1000.77 1000.41
1018.45 1017.94 1017.51 1017.11 1016.77 1016.41 1016.18 1015.99 1015.66 1015.22 1014.34 1012.89 1011.00 1008.00 1008.26 1008.44 1006.88 1005.23 1003.85 1003.74 1003.79 1002.77 1002.84 1002.34 1001.93 1000.84 1000.05 999.87 999.81 999.78 999.94 1000.24 1001.10 1000.98 1001.54 1001.57 1001.05 1000.73 1000.80 1000.90 1001.21 1000.90 1000.52 1000.65 1000.33 1000.38 1000.55
1018.25 1017.67 1017.07 1016.64 1016.42 1016.21 1016.00 1015.87 1015.61 1015.25 1014.97 1013.47 1010.28 1008.21 1007.98 1007.73 1005.16 1004.47 1004.25 1003.78 1003.40 1002.83 1002.41 1002.09 1001.45 1001.21 1000.81 999.97 1000.02 1000.06 1000.35 1001.38 1001.76 1001.59 1001.20 1001.40 1001.24 1000.32 1000.34 1000.73 1001.28 1000.95 1000.66 1000.62 1000.19 999.90 999.93
1018.03 1017.37 1016.67 1016.20 1016.07 1015.98 1015.94 1015.73 1015.52 1015.17 1014.68 1013.97 1010.57 1007.45 1007.00 1006.73 1005.69 1003.88 1003.65 1003.21 1003.00 1003.21 1002.66 1002.36 1001.69 1001.44 1000.91 1000.32 1000.30 1000.22 1000.51 1001.64 1002.11 1001.90 1002.41 1001.94 1000.40 999.93 999.13 999.14 999.42 999.73 999.98 1000.01 1000.00 999.49 999.54
1017.86 1017.09 1016.33 1015.96 1015.81 1015.88 1015.87 1015.66 1015.43 1015.04 1014.53 1013.97 1010.17 1007.46 1007.14 1005.56 1005.04 1004.31 1003.97 1003.44 1002.78 1002.55 1002.66 1002.43 1001.79 1001.31 1000.64 1000.31 1000.17 1000.08 1000.48 1001.46 1002.03 1002.62 1002.33 1001.55 1000.35 999.96 999.56 999.18 999.33 999.30 999.29 999.67 999.89 999.39 998.88
1017.90 1017.10 1016.13 1015.74 1015.85 1015.90 1015.83 1015.61 1015.33 1014.91 1014.46 1012.95 1009.94 1008.35 1007.57 1006.11 1005.64 1004.72 1004.09 1003.48 1002.89 1002.71 1002.29 1001.88 1001.60 1001.20 1001.37 1000.76 1000.35 1000.35 1000.57 1000.81 1001.10 1001.92 1001.77 1001.39 1000.76 1000.55 999.87 999.24 999.51 999.29 999.07 999.10 999.37 999.20 998.93
1018.00 1017.33 1016.63 1016.27 1016.04 1015.97 1015.85 1015.58 1015.33 1014.90 1014.25 1011.94 1010.84 1009.91 1008.64 1006.43 1005.18 1004.40 1003.43 1003.50 1003.35 1003.46 1003.08 1002.40 1002.02 1001.50 1001.68 1002.48 1002.35 1001.93 1001.69 1001.57 1001.69 1001.42 1001.33 1001.30 1000.72 1000.59 999.56 999.75 999.59 999.41 998.83 998.63 998.56 998.79 998.77
1018.18 1017.70 1017.08 1016.66 1016.29 1016.08 1015.87 1015.64 1015.39 1015.19 1014.90 1013.49 1011.87 1010.84 1008.50 1005.76 1005.31 1004.27 1004.27 1004.38 1003.91 1003.81 1003.00 1002.95 1002.70 1002.00 1003.66 1003.75 1003.24 1002.46 1002.10 1002.08 1002.18 1002.13 1001.84 1001.50 1001.53 1001.18 1000.27 1000.17 999.41 998.67 999.10 998.44 998.52 998.61 998.61
1018.24 1017.81 1017.48 1016.88 1016.56 1016.20 1015.92 1015.72 1015.49 1015.35 1014.99 1013.60 1012.59 1011.47 1009.06 1006.51 1005.60 1005.32 1005.04 1004.51 1004.40 1004.23 1003.61 1003.29 1003.82 1004.11 1004.00 1003.41 1002.44 1002.26 1002.18 1002.20 1002.12 1002.39 1002.10 1002.17 1001.75 1001.16 1000.89 999.98 999.40 999.41 999.74 999.74 999.54 998.93 998.72
1018.33 1017.90 1017.60 1017.20 1016.69 1016.33 1016.01 1015.85 1015.62 1015.39 1014.95 1013.75 1012.74 1012.44 1010.60 1008.18 1006.05 1006.14 1005.48 1005.15 1003.94 1003.61 1003.91 1004.03 1004.57 1004.43 1003.99 1002.71 1002.13 1002.01 1001.54 1001.63 1001.75 1002.15 1002.49 1002.32 1002.49 1001.99 1000.85 1000.57 999.78 999.52 1000.13 1000.79 1000.71 999.96 999.89
1018.32 1017.99 1017.65 1017.35 1016.90 1016.57 1016.28 1016.04 1015.80 1015.41 1015.02 1014.19 1012.81 1012.83 1011.38 1008.83 1007.11 1007.02 1005.93 1005.25 1005.23 1004.61 1003.55 1004.37 1004.46 1004.13 1003.99 1002.67 1002.24 1002.02 1001.83 1002.68 1002.20 1002.18 1002.08 1002.18 1002.16 1001.72 1001.23 1001.00 1000.76 1001.29 1001.62 1002.02 1001.57 1001.73 1002.02
1018.09 1017.85 1017.57 1017.37 1017.03 1016.80 1016.51 1016.21 1015.94 1015.55 1015.19 1014.56 1012.82 1013.03 1012.19 1009.77 1007.90 1007.64 1007.16 1006.43 1005.92 1005.36 1004.23 1005.32 1005.08 1004.52 1003.96 1003.25 1002.77 1002.75 1002.83 1003.03 1003.07 1002.63 1002.54 1002.47 1002.15 1001.65 1001.79 1001.79 1001.95 1002.56 1002.74 1002.68 1003.17 1002.94 1002.95
1017.90 1017.69 1017.47 1017.29 1017.04 1016.82 1016.64 1016.32 1015.98 1015.68 1015.33 1014.85 1012.83 1013.10 1012.92 1011.53 1008.61 1008.47 1007.93 1007.54 1007.22 1006.79 1006.03 1005.58 1005.34 1005.01 1004.70 1004.05 1004.20 1004.04 1003.83 1003.89 1003.15 1002.63 1003.86 1003.43 1003.05 1002.92 1002.54 1002.42 1003.47 1003.57 1003.51 1003.58 1003.80 1003.72 1003.49
Thickness
5669 5676 5681 5686 5691 5697 5704 5710 5715 5722 5728 5734 5741 5747 5754 5761 5768 5775 5784 5792 5798 5803 5809 5814 5817 5821 5832 5840 5851 5875 5872 5871 5870 5869 5864 5863 5863 5858 5850 5854 5858 5848 5843 5846 5845 5842 5838
5660 5667 5674 5680 5686 5691 5698 5705 5711 5717 5724 5731 5738 5744 5752 5760 5767 5775 5783 5792 5800 5806 5811 5816 5819 5822 5834 5835 5871 5874 5877 5872 5873 5870 5867 5869 5863 5868 5859 5853 5853 5854 5847 5842 5842 5838 5835
5650 5658 5666 5673 5680 5687 5693 5700 5707 5713 5721 5728 5736 5744 5751 5758 5766 5774 5783 5793 5802 5809 5814 5817 5820 5827 5837 5844 5871 5873 5874 5872 5877 5875 5865 5872 5874 5864 5867 5850 5863 5857 5835 5837 5836 5836 5829
5642 5650 5657 5665 5674 5682 5689 5697 5704 5711 5719 5726 5735 5743 5750 5757 5765 5774 5784 5794 5804 5812 5817 5820 5821 5832 5842 5867 5871 5869 5873 5870 5876 5880 5876 5876 5879 5869 5867 5868 5856 5844 5844 5822 5833 5834 5832
5635 5643 5649 5657 5667 5676 5684 5693 5701 5709 5717 5725 5733 5741 5748 5755 5763 5773 5784 5794 5804 5811 5816 5819 5827 5834 5837 5865 5858 5873 5876 5865 5871 5874 5875 5874 5873 5862 5861 5848 5838 5839 5821 5823 5826 5840 5833
5628 5637 5644 5651 5660 5669 5679 5688 5697 5706 5714 5722 5731 5738 5746 5754 5763 5773 5785 5795 5802 5807 5815 5822 5830 5825 5848 5845 5861 5867 5875 5874 5864 5863 5855 5856 5858 5848 5852 5853 5807 5826 5824 5829 5824 5838 5835
5624 5631 5638 5646 5654 5664 5673 5683 5692 5701 5711 5719 5728 5736 5745 5754 5763 5772 5788 5804 5807 5811 5821 5831 5835 5833 5842 5858 5864 5861 5871 5863 5864 5857 5837 5850 5842 5836 5846 5850 5843 5834 5829 5825 5836 5842 5832
5620 5626 5633 5641 5650 5658 5667 5678 5687 5697 5706 5716 5725 5734 5743 5754 5765 5775 5785 5806 5800 5804 5812 5832 5832 5834 5845 5851 5841 5854 5869 5848 5846 5833 5851 5836 5839 5846 5849 5844 5839 5834 5831 5826 5838 5840 5834
5616 5622 5629 5636 5645 5653 5662 5672 5682 5692 5702 5712 5722 5731 5740 5754 5767 5781 5790 5797 5804 5808 5809 5824 5834 5836 5841 5847 5844 5845 5859 5855 5843 5838 5836 5835 5847 5844 5841 5835 5832 5835 5831 5821 5822 5840 5842
5612 5618 5625 5632 5640 5649 5657 5667 5677 5688 5699 5708 5718 5728 5737 5753 5769 5780 5790 5796 5803 5807 5808 5812 5823 5835 5839 5847 5832 5864 5867 5854 5845 5832 5839 5842 5845 5834 5833 5829 5836 5832 5836 5831 5829 5830 5820
5607 5613 5620 5628 5636 5644 5653 5662 5672 5683 5695 5706 5715 5725 5734 5740 5762 5777 5788 5795 5802 5802 5786 5817 5821 5849 5845 5836 5847 5839 5865 5851 5833 5838 5837 5831 5829 5825 5824 5834 5838 5827 5837 5831 5831 5834 5829
5602 5607 5614 5623 5631 5640 5649 5658 5667 5678 5691 5703 5714 5721 5731 5747 5758 5778 5784 5793 5795 5786 5781 5807 5825 5821 5821 5833 5837 5844 5840 5853 5859 5839 5836 5844 5852 5841 5839 5836 5835 5838 5832 5837 5838 5837 5815
5597 5603 5608 5617 5626 5635 5644 5653 5664 5675 5686 5700 5713 5722 5727 5744 5771 5775 5783 5790 5781 5783 5812 5803 5814 5823 5825 5821 5826 5830 5825 5822 5817 5803 5808 5826 5826 5842 5841 5823 5832 5831 5827 5810 5811 5806 5805
5591 5597 5603 5611 5620 5629 5638 5648 5660 5671 5682 5696 5712 5724 5738 5750 5762 5769 5781 5780 5765 5795 5806 5816 5819 5821 5814 5825 5826 5826 5821 5815 5833 5831 5825 5806 5795 5825 5839 5827 5823 5828 5827 5811 5782 5797 5813
5586 5591 5598 5606 5614 5623 5633 5643 5654 5666 5677 5690 5711 5736 5743 5755 5758 5764 5773 5767 5786 5795 5806 5806 5809 5803 5809 5820 5822 5819 5819 5821 5827 5830 5811 5808 5807 5838 5839 5840 5833 5821 5802 5842 5815 5830 5804
5581 5586 5593 5602 5610 5618 5627 5638 5648 5660 5671 5683 5706 5728 5745 5749 5755 5763 5767 5768 5781 5794 5800 5802 5799 5814 5801 5811 5809 5815 5814 5831 5826 5835 5844 5821 5794 5825 5830 5831 5836 5823 5842 5804 5817 5778 5777
5576 5582 5588 5597 5605 5613 5622 5631 5641 5652 5665 5680 5703 5722 5735 5743 5750 5757 5758 5771 5777 5793 5794 5793 5798 5802 5817 5812 5817 5813 5813 5824 5832 5828 5834 5829 5813 5803 5815 5811 5814 5810 5807 5815 5826 5816 5790
5569 5576 5584 5591 5600 5609 5616 5624 5634 5645 5658 5677 5699 5715 5731 5738 5739 5755 5759 5766 5762 5784 5793 5792 5796 5805 5809 5814 5810 5812 5811 5821 5832 5833 5807 5824 5816 5795 5804 5828 5832 5828 5822 5824 5802 5798 5810
5561 5569 5578 5587 5594 5601 5610 5617 5627 5637 5646 5666 5694 5709 5725 5730 5732 5740 5752 5760 5769 5775 5784 5787 5791 5801 5809 5808 5796 5811 5815 5821 5821 5820 5815 5822 5804 5788 5795 5811 5817 5808 5820 5823 5830 5835 5805
5555 5562 5572 5581 5588 5594 5602 5610 5619 5630 5640 5655 5684 5702 5713 5722 5734 5746 5744 5752 5756 5771 5778 5785 5789 5798 5798 5799 5810 5803 5808 5811 5816 5819 5804 5817 5818 5807 5801 5812 5825 5806 5814 5822 5820 5809 5808
5547 5556 5565 5573 5581 5587 5593 5602 5612 5623 5634 5649 5681 5698 5704 5709 5721 5733 5741 5747 5751 5755 5773 5782 5780 5789 5795 5789 5798 5801 5811 5806 5811 5794 5810 5816 5802 5817 5823 5829 5825 5821 5818 5815 5804 5820 5813
5538 5547 5559 5566 5572 5579 5586 5594 5603 5615 5626 5649 5672 5684 5697 5708 5714 5722 5717 5736 5745 5753 5766 5769 5773 5789 5791 5790 5800 5793 5804 5807 5804 5809 5807 5817 5796 5805 5802 5824 5817 5809 5822 5822 5818 5822 5825
5529 5538 5547 5555 5562 5569 5577 5586 5595 5607 5621 5648 5661 5672 5680 5688 5711 5718 5731 5735 5739 5746 5757 5770 5776 5782 5781 5779 5792 5800 5806 5809 5807 5805 5803 5803 5802 5793 5791 5808 5806 5788 5814 5822 5827 5831 5827
5521 5527 5535 5544 5552 5560 5568 5577 5587 5597 5607 5625 5645 5656 5676 5696 5704 5716 5721 5724 5731 5736 5746 5759 5768 5774 5769 5783 5791 5797 5799 5798 5798 5798 5807 5793 5788 5790 5784 5790 5762 5818 5833 5839 5829 5832 5837
5513 5518 5524 5534 5542 5552 5561 5569 5579 5588 5599 5618 5632 5645 5667 5685 5700 5703 5709 5719 5727 5733 5740 5750 5753 5760 5771 5775 5774 5765 5769 5773 5780 5786 5791 5795 5787 5778 5767 5778 5800 5806 5812 5811 5807 5816 5839
5506 5511 5516 5523 5533 5543 5552 5561 5571 5581 5592 5610 5624 5633 5651 5670 5688 5696 5702 5711 5723 5731 5732 5739 5749 5760 5763 5768 5765 5744 5746 5763 5759 5768 5785 5787 5782 5773 5779 5756 5757 5806 5810 5816 5815 5791 5825
5499 5504 5508 5514 5524 5534 5543 5553 5563 5574 5584 5598 5616 5623 5640 5660 5685 5686 5694 5704 5714 5721 5732 5732 5737 5745 5758 5755 5750 5747 5750 5757 5746 5749 5758 5764 5765 5759 5767 5759 5779 5790 5796 5801 5769 5784 5800
5494 5499 5503 5507 5516 5525 5535 5545 5555 5567 5577 5589 5610 5615 5628 5652 5672 5679 5688 5694 5703 5712 5719 5718 5725 5734 5740 5737 5741 5741 5742 5747 5745 5759 5756 5753 5752 5757 5759 5748 5741 5781 5778 5767 5774 5790 5792
5490 5494 5498 5502 5509 5517 5526 5538 5549 5560 5570 5581 5605 5609 5618 5632 5663 5672 5683 5694 5698 5705 5711 5717 5718 5724 5733 5732 5732 5735 5731 5737 5745 5736 5748 5735 5755 5750 5755 5756 5761 5769 5768 5777 5778 5776 5782